Location: New Canada
(47.1017°N, 68.5042°W)
Time: 17:38:37
(UTC+00:00)

RS-44 - Pass Details

Date: 19 April 2024
Orbit: 1174 x 1511 km, 82.5° (Epoch: 20 May)

Event Time Altitude Azimuth Distance (km) Brightness Sun altitude
Rises 00:13:21 0° 175° (S) 4,640 ? -8.0°
Reaches altitude 10° 00:16:18 10° 172° (S) 3,657 ? -8.5°
Maximum altitude 00:25:03 67° 93° (E) 1,587 ? -9.8°
Drops below altitude 10° 00:33:26 10° 14° (NNE) 3,520 ? -11.0°
Sets 00:36:13 0° 12° (NNE) 4,458 ? -11.4°
